Погода в Бабине

Россия / Тверская область     56°44′04″N   34°16′48″E
темп.,
°C
ветер,
м/с
пор.,
м/с
влажн.,
%
обл.,
%
осадки,
мм/ч
давл.,
гПа
погр.,
м
5 марта, пт
пт500:00−6сз26954 0.0 1004168
03:00−6зсз389544 0.0 1006386
06:00−8зсз389594 0.0 1007381
09:00−7зсз388992 0.1 1008564
12:00−4сз466799 0.1 10091298
15:00−3сз4658100 0.3 10111634
18:00−6сз257668 0.1 1012104
21:00−9сз239134 0.2 101473
6 марта, сб
сб600:00−10зсз23940 0.0 101569
03:00−10зсз24950 0.0 1017102
06:00−9з259569 0.0 1017192
09:00−8зсз379080 0.1 1018467
12:00−5зсз3572100 0.1 10181018
15:00−4зсз4664100 0.2 10161347
18:00−6зюз377764 0.1 1014222
21:00−6юз5127877 0.1 1012819
7 марта, вс
вс700:00−6юз61485100 0.1 1007973
03:00−5юз71575100 0.3 10021067
06:00−5юз81691100 0.8 9961224
09:00−3юз81690100 2.2 9921226
12:00−6зсз81478100 2.3 9931640
15:00−5з7136088 2.6 9962004
18:00−5зюз51374100 0.1 9941292
21:00−5з61293100 0.9 9931101
8 марта, пн
пн800:00−7сз5987100 1.6 993669
03:00−10зсз51286100 1.6 996723
06:00−11сз51188100 0.1 998723
09:00−11зсз51286100 0.1 1000808
12:00−8сз6981100 0.1 1002966
15:00−8сз6979100 0.3 10051002
18:00−10сз4985100 0.1 1008802
21:00−13ссз4991100 0.1 1011605
9 марта, вт
вт900:00−15ссз3894100 0.1 1013446
03:00−17сз3895100 0.1 1015366
06:00−19сз389697 0.0 1016288
09:00−17сз369080 0.0 1018262
12:00−11зсз247236 0.0 1017519
15:00−9з247465 0.0 1016647
18:00−10ю1394100 0.1 1014216
21:00−10юв3694100 1.1 1014326